Overview Statistics Trail Chart Weather Telemetry Raw packets
 

This is the latest recevied weather packets stored in our database for station/object DL1EEM-L4. If no packets are shown the sender has not sent any weather packets the latest 10 day(s).

<< 3 4 5 6 7 8 9 >>
Time Temp. Humidity Pressure Rain* Wind** Luminosity Snow
1777860967 15° C 75% 1009 hPa - - - -
1777860055 15° C 76% 1009 hPa - - - -
1777859155 15° C 76% 1008.9 hPa - - - -
1777858255 15° C 76% 1008.9 hPa - - - -
1777857355 15° C 76% 1008.7 hPa - - - -
1777856467 15.56° C 75% 1008.7 hPa - - - -
1777855555 15° C 76% 1008.6 hPa - - - -
1777854655 15.56° C 75% 1008.5 hPa - - - -
1777853754 15.56° C 73% 1008.6 hPa - - - -
1777852854 15.56° C 73% 1008.6 hPa - - - -
1777851954 15.56° C 74% 1008.5 hPa - - - -
1777851054 15.56° C 74% 1008.5 hPa - - - -
1777850154 15.56° C 74% 1008.5 hPa - - - -
1777849250 15.56° C 74% 1008.3 hPa - - - -
1777848355 16.11° C 72% 1008.5 hPa - - - -
1777847455 15.56° C 74% 1008.5 hPa - - - -
1777846555 16.11° C 74% 1008.4 hPa - - - -
1777845655 16.11° C 73% 1008.3 hPa - - - -
1777844755 16.11° C 72% 1008.3 hPa - - - -
1777843854 16.11° C 74% 1008.3 hPa - - - -
1777842954 16.11° C 73% 1008.4 hPa - - - -
1777842054 16.11° C 74% 1008.3 hPa - - - -
1777841154 16.11° C 75% 1008.2 hPa - - - -
1777840254 16.11° C 74% 1008.2 hPa - - - -
1777839354 16.67° C 73% 1008.3 hPa - - - -

* Rain since midnight (hover to see other rain measurements)
** Current wind speed in m/s (hover to see current wind gust speed)